Location: Altenst�hlen
(53.5567°N, 8.9425°E)
Time: 06:00:16
(UTC+00:00)

Cosmos 1725 Rocket - Pass Details

Date: 23 October 2019
Orbit: 963 x 990 km, 82.9° (Epoch: 16 November)

Event Time Altitude Azimuth Distance (km) Brightness Sun altitude
Rises 18:30:39 0° 349° (N) 3,694 7.3 -21.4°
Reaches altitude 10° 18:33:11 10° 351° (N) 2,746 6.6 -21.7°
Maximum altitude 18:39:30 78° 78° (ENE) 1,013 3.9 -22.7°
Enters shadow 18:43:51 22° 163° (SSE) 2,031 5.4 -23.3°
